Time,TemperatureF,DewpointF,PressureIn,WindDirection,WindDirectionDegrees,WindSpeedMPH,WindSpeedGustMPH,Humidity,HourlyPrecipIn,Conditions,Clouds,dailyrainin,SoftwareType,DateUTC
2013-04-18 00:04:00,72.7,70.2,29.65,ESE,117,4.0,8.0,92,0.00,,,0.00,Wunderground v.1.15,2013-04-18 05:04:00,
2013-04-18 00:10:00,72.7,69.9,29.65,SSE,164,4.0,4.0,91,0.00,,,0.00,Wunderground v.1.15,2013-04-18 05:10:00,
2013-04-18 00:20:00,72.8,69.7,29.65,SE,145,4.0,4.0,90,0.00,,,0.00,Wunderground v.1.15,2013-04-18 05:20:00,
2013-04-18 00:25:00,72.8,69.7,29.65,SE,134,3.0,7.0,90,0.00,,,0.00,Wunderground v.1.15,2013-04-18 05:25:00,
2013-04-18 00:35:00,73.0,69.9,29.65,SSE,150,4.0,5.0,90,0.00,,,0.00,Wunderground v.1.15,2013-04-18 05:35:00,
2013-04-18 00:40:00,73.0,69.9,29.65,SE,130,4.0,9.0,90,0.00,,,0.00,Wunderground v.1.15,2013-04-18 05:40:00,
2013-04-18 00:50:00,73.0,69.6,29.65,SE,131,3.0,3.0,89,0.00,,,0.00,Wunderground v.1.15,2013-04-18 05:50:00,
2013-04-18 00:55:00,73.0,69.6,29.64,ESE,104,3.0,8.0,89,0.00,,,0.00,Wunderground v.1.15,2013-04-18 05:55:00,
2013-04-18 01:04:00,73.0,69.2,29.64,ESE,116,5.0,7.0,88,0.00,,,0.00,Wunderground v.1.15,2013-04-18 06:04:00,
2013-04-18 01:10:00,73.0,68.9,29.64,SSE,150,5.0,5.0,87,0.00,,,0.00,Wunderground v.1.15,2013-04-18 06:10:00,
2013-04-18 01:20:00,73.2,69.1,29.63,SE,137,5.0,5.0,87,0.00,,,0.00,Wunderground v.1.15,2013-04-18 06:20:00,
2013-04-18 01:25:00,73.2,69.1,29.63,SE,127,5.0,5.0,87,0.00,,,0.00,Wunderground v.1.15,2013-04-18 06:25:00,
2013-04-18 01:35:00,73.0,68.9,29.63,SE,124,4.0,7.0,87,0.00,,,0.00,Wunderground v.1.15,2013-04-18 06:35:00,
2013-04-18 01:40:00,73.0,68.9,29.62,SSE,164,4.0,8.0,87,0.00,,,0.00,Wunderground v.1.15,2013-04-18 06:40:00,
2013-04-18 01:50:00,73.0,68.9,29.62,SSE,165,4.0,11.0,87,0.00,,,0.00,Wunderground v.1.15,2013-04-18 06:50:00,
2013-04-18 01:55:00,72.8,68.7,29.62,SE,126,5.0,11.0,87,0.00,,,0.00,Wunderground v.1.15,2013-04-18 06:55:00,
2013-04-18 02:05:00,72.8,68.7,29.63,ESE,121,5.0,7.0,87,0.00,,,0.00,Wunderground v.1.15,2013-04-18 07:05:00,
2013-04-18 02:10:00,72.8,68.4,29.63,East,92,4.0,4.0,86,0.00,,,0.00,Wunderground v.1.15,2013-04-18 07:10:00,
2013-04-18 02:20:00,72.8,68.4,29.62,ESE,116,4.0,5.0,86,0.00,,,0.00,Wunderground v.1.15,2013-04-18 07:20:00,
2013-04-18 02:25:00,72.8,68.4,29.62,SE,137,4.0,6.0,86,0.00,,,0.00,Wunderground v.1.15,2013-04-18 07:25:00,
2013-04-18 02:34:00,72.8,68.4,29.61,SSE,154,4.0,11.0,86,0.00,,,0.00,Wunderground v.1.15,2013-04-18 07:34:00,
2013-04-18 02:40:00,72.8,68.0,29.60,SSE,157,5.0,12.0,85,0.00,,,0.00,Wunderground v.1.15,2013-04-18 07:40:00,
2013-04-18 02:50:00,72.7,68.3,29.59,ESE,116,5.0,5.0,86,0.00,,,0.00,Wunderground v.1.15,2013-04-18 07:50:00,
2013-04-18 02:55:00,72.7,68.3,29.59,SE,133,3.0,5.0,86,0.00,,,0.00,Wunderground v.1.15,2013-04-18 07:55:00,
2013-04-18 03:05:00,72.5,68.1,29.58,ESE,110,5.0,5.0,86,0.00,,,0.00,Wunderground v.1.15,2013-04-18 08:05:00,
2013-04-18 03:10:00,72.5,68.1,29.58,SE,136,5.0,7.0,86,0.00,,,0.00,Wunderground v.1.15,2013-04-18 08:10:00,
2013-04-18 03:20:00,72.3,67.9,29.58,South,169,6.0,12.0,86,0.00,,,0.00,Wunderground v.1.15,2013-04-18 08:20:00,
2013-04-18 03:25:00,72.3,67.9,29.58,SE,130,6.0,12.0,86,0.00,,,0.00,Wunderground v.1.15,2013-04-18 08:25:00,
2013-04-18 03:34:00,72.3,67.9,29.58,SSE,148,6.0,6.0,86,0.00,,,0.00,Wunderground v.1.15,2013-04-18 08:34:00,
2013-04-18 03:40:00,72.3,67.9,29.58,ESE,121,4.0,6.0,86,0.00,,,0.00,Wunderground v.1.15,2013-04-18 08:40:00,
2013-04-18 03:50:00,72.1,67.7,29.58,ESE,113,4.0,11.0,86,0.00,,,0.00,Wunderground v.1.15,2013-04-18 08:50:00,
2013-04-18 03:55:00,72.1,67.3,29.58,SE,143,4.0,11.0,85,0.00,,,0.00,Wunderground v.1.15,2013-04-18 08:55:00,
2013-04-18 04:05:00,72.1,67.3,29.58,SSE,150,5.0,5.0,85,0.00,,,0.00,Wunderground v.1.15,2013-04-18 09:05:00,
2013-04-18 04:10:00,72.1,67.3,29.58,South,181,4.0,4.0,85,0.00,,,0.00,Wunderground v.1.15,2013-04-18 09:10:00,
2013-04-18 04:20:00,72.1,67.7,29.58,SSE,155,4.0,6.0,86,0.00,,,0.01,Wunderground v.1.15,2013-04-18 09:20:00,
2013-04-18 04:25:00,72.1,67.7,29.58,SE,144,4.0,12.0,86,0.00,,,0.01,Wunderground v.1.15,2013-04-18 09:25:00,
2013-04-18 04:35:00,72.1,67.7,29.58,South,172,5.0,9.0,86,0.00,,,0.01,Wunderground v.1.15,2013-04-18 09:35:00,
2013-04-18 04:40:00,72.1,67.3,29.58,SE,144,5.0,5.0,85,0.00,,,0.01,Wunderground v.1.15,2013-04-18 09:40:00,
2013-04-18 04:50:00,72.1,67.7,29.58,SE,143,3.0,3.0,86,0.00,,,0.01,Wunderground v.1.15,2013-04-18 09:50:00,
2013-04-18 04:55:00,72.0,67.6,29.58,SSE,164,5.0,7.0,86,0.00,,,0.01,Wunderground v.1.15,2013-04-18 09:55:00,
2013-04-18 05:05:00,72.0,67.2,29.58,SE,128,5.0,7.0,85,0.00,,,0.01,Wunderground v.1.15,2013-04-18 10:05:00,
2013-04-18 05:10:00,72.0,67.2,29.58,SSE,155,5.0,5.0,85,0.00,,,0.01,Wunderground v.1.15,2013-04-18 10:10:00,
2013-04-18 05:20:00,72.0,67.6,29.58,South,185,4.0,12.0,86,0.00,,,0.01,Wunderground v.1.15,2013-04-18 10:20:00,
2013-04-18 05:25:00,72.0,67.2,29.58,SE,124,4.0,12.0,85,0.00,,,0.01,Wunderground v.1.15,2013-04-18 10:25:00,
2013-04-18 05:35:00,72.0,67.2,29.59,SSE,160,3.0,4.0,85,0.00,,,0.01,Wunderground v.1.15,2013-04-18 10:35:00,
2013-04-18 05:40:00,71.8,67.0,29.59,SE,144,4.0,4.0,85,0.00,,,0.01,Wunderground v.1.15,2013-04-18 10:40:00,
2013-04-18 05:50:00,71.8,67.0,29.59,SE,145,5.0,5.0,85,0.00,,,0.01,Wunderground v.1.15,2013-04-18 10:50:00,
2013-04-18 05:55:00,71.8,67.0,29.59,South,174,4.0,9.0,85,0.00,,,0.01,Wunderground v.1.15,2013-04-18 10:55:00,
2013-04-18 06:05:00,71.8,66.7,29.58,SSE,147,6.0,9.0,84,0.00,,,0.01,Wunderground v.1.15,2013-04-18 11:05:00,
2013-04-18 06:10:00,71.8,66.7,29.58,SE,145,7.0,7.0,84,0.00,,,0.01,Wunderground v.1.15,2013-04-18 11:10:00,
2013-04-18 06:20:00,71.8,66.7,29.58,SSE,167,7.0,12.0,84,0.00,,,0.01,Wunderground v.1.15,2013-04-18 11:20:00,
2013-04-18 06:25:00,71.8,66.7,29.58,South,169,6.0,12.0,84,0.00,,,0.01,Wunderground v.1.15,2013-04-18 11:25:00,
2013-04-18 06:35:00,71.8,67.0,29.58,SSW,193,5.0,6.0,85,0.00,,,0.01,Wunderground v.1.15,2013-04-18 11:35:00,
2013-04-18 06:40:00,71.8,67.0,29.60,SSE,162,5.0,5.0,85,0.00,,,0.01,Wunderground v.1.15,2013-04-18 11:40:00,
2013-04-18 06:50:00,71.8,67.0,29.65,WNW,292,3.0,3.0,85,0.00,,,0.01,Wunderground v.1.15,2013-04-18 11:50:00,
2013-04-18 06:55:00,71.8,67.0,29.66,West,280,4.0,4.0,85,0.00,,,0.01,Wunderground v.1.15,2013-04-18 11:55:00,
2013-04-18 07:05:00,71.8,67.0,29.67,WNW,291,3.0,6.0,85,0.00,,,0.01,Wunderground v.1.15,2013-04-18 12:05:00,
2013-04-18 07:10:00,70.9,64.1,29.68,NW,322,5.0,11.0,79,0.00,,,0.01,Wunderground v.1.15,2013-04-18 12:10:00,
2013-04-18 07:20:00,66.0,60.7,29.70,NNW,328,6.0,6.0,83,0.30,,,0.04,Wunderground v.1.15,2013-04-18 12:20:00,
2013-04-18 07:25:00,64.0,59.7,29.71,North,0,5.0,6.0,86,0.14,,,0.05,Wunderground v.1.15,2013-04-18 12:25:00,
2013-04-18 07:35:00,62.1,59.1,29.72,West,280,5.0,10.0,90,0.09,,,0.07,Wunderground v.1.15,2013-04-18 12:35:00,
2013-04-18 07:40:00,61.5,58.8,29.73,North,353,5.0,5.0,91,0.05,,,0.07,Wunderground v.1.15,2013-04-18 12:40:00,
2013-04-18 07:50:00,60.9,58.6,29.73,NNW,342,3.0,10.0,92,0.00,,,0.08,Wunderground v.1.15,2013-04-18 12:50:00,
2013-04-18 07:55:00,60.5,58.5,29.73,NW,318,4.0,10.0,93,0.00,,,0.08,Wunderground v.1.15,2013-04-18 12:55:00,
2013-04-18 08:05:00,59.8,57.8,29.75,North,0,7.0,17.0,93,0.00,,,0.08,Wunderground v.1.15,2013-04-18 13:05:00,
2013-04-18 08:10:00,59.0,57.0,29.76,North,349,10.0,10.0,93,0.00,,,0.09,Wunderground v.1.15,2013-04-18 13:10:00,
2013-04-18 08:20:00,58.0,56.0,29.76,North,359,9.0,11.0,93,0.00,,,0.09,Wunderground v.1.15,2013-04-18 13:20:00,
2013-04-18 08:25:00,57.2,55.2,29.78,NW,325,9.0,11.0,93,0.00,,,0.09,Wunderground v.1.15,2013-04-18 13:25:00,
2013-04-18 08:35:00,55.7,53.7,29.78,NW,319,10.0,10.0,93,0.00,,,0.10,Wunderground v.1.15,2013-04-18 13:35:00,
2013-04-18 08:40:00,54.8,52.8,29.80,NNW,343,9.0,9.0,93,0.00,,,0.10,Wunderground v.1.15,2013-04-18 13:40:00,
2013-04-18 08:50:00,53.5,51.5,29.80,NW,305,9.0,16.0,93,0.05,,,0.11,Wunderground v.1.15,2013-04-18 13:50:00,
2013-04-18 08:55:00,52.9,50.9,29.81,NW,316,8.0,18.0,93,0.04,,,0.11,Wunderground v.1.15,2013-04-18 13:55:00,
2013-04-18 09:05:00,52.0,50.0,29.82,NNW,333,11.0,21.0,93,0.00,,,0.11,Wunderground v.1.15,2013-04-18 14:05:00,
2013-04-18 09:10:00,51.4,49.4,29.82,NNW,337,13.0,13.0,93,0.00,,,0.11,Wunderground v.1.15,2013-04-18 14:10:00,
2013-04-18 09:20:00,51.0,49.0,29.82,NNW,337,11.0,11.0,93,0.00,,,0.11,Wunderground v.1.15,2013-04-18 14:20:00,
2013-04-18 09:25:00,50.7,49.0,29.82,NW,308,12.0,12.0,94,0.00,,,0.11,Wunderground v.1.15,2013-04-18 14:25:00,
2013-04-18 09:35:00,50.5,48.8,29.82,NNW,337,12.0,12.0,94,0.00,,,0.12,Wunderground v.1.15,2013-04-18 14:35:00,
2013-04-18 09:40:00,50.5,48.8,29.82,NW,319,10.0,10.0,94,0.00,,,0.12,Wunderground v.1.15,2013-04-18 14:40:00,
2013-04-18 09:50:00,50.4,49.0,29.83,WNW,302,10.0,14.0,95,0.00,,,0.12,Wunderground v.1.15,2013-04-18 14:50:00,
2013-04-18 09:55:00,50.4,49.0,29.83,NNW,328,11.0,14.0,95,0.00,,,0.12,Wunderground v.1.15,2013-04-18 14:55:00,
2013-04-18 10:05:00,50.2,48.8,29.84,NNW,330,10.0,11.0,95,0.00,,,0.12,Wunderground v.1.15,2013-04-18 15:05:00,
2013-04-18 10:10:00,50.2,48.8,29.84,North,353,8.0,8.0,95,0.00,,,0.12,Wunderground v.1.15,2013-04-18 15:10:00,
2013-04-18 10:20:00,50.2,48.8,29.86,NW,312,8.0,16.0,95,0.00,,,0.12,Wunderground v.1.15,2013-04-18 15:20:00,
2013-04-18 10:25:00,49.5,47.8,29.86,WSW,258,9.0,16.0,94,0.00,,,0.12,Wunderground v.1.15,2013-04-18 15:25:00,
2013-04-18 10:35:00,48.8,47.2,29.86,NNW,328,10.0,26.0,94,0.00,,,0.12,Wunderground v.1.15,2013-04-18 15:35:00,
2013-04-18 10:40:00,48.8,47.2,29.87,NNW,329,9.0,9.0,94,0.00,,,0.12,Wunderground v.1.15,2013-04-18 15:40:00,
2013-04-18 10:50:00,48.5,46.9,29.87,WNW,292,9.0,16.0,94,0.00,,,0.12,Wunderground v.1.15,2013-04-18 15:50:00,
2013-04-18 10:55:00,48.2,46.3,29.89,NNW,343,10.0,16.0,93,0.00,,,0.12,Wunderground v.1.15,2013-04-18 15:55:00,
2013-04-18 11:05:00,48.6,47.0,29.88,NW,323,6.0,8.0,94,0.00,,,0.12,Wunderground v.1.15,2013-04-18 16:05:00,
2013-04-18 11:10:00,48.6,46.7,29.88,NNW,344,7.0,11.0,93,0.00,,,0.12,Wunderground v.1.15,2013-04-18 16:10:00,
2013-04-18 11:20:00,48.6,46.4,29.88,NNW,328,8.0,8.0,92,0.00,,,0.12,Wunderground v.1.15,2013-04-18 16:20:00,
2013-04-18 11:25:00,48.6,46.1,29.88,NNE,21,9.0,20.0,91,0.00,,,0.12,Wunderground v.1.15,2013-04-18 16:25:00,
2013-04-18 11:35:00,49.2,46.7,29.88,North,359,10.0,11.0,91,0.00,,,0.12,Wunderground v.1.15,2013-04-18 16:35:00,
2013-04-18 11:40:00,49.4,46.3,29.89,North,356,9.0,9.0,89,0.00,,,0.12,Wunderground v.1.15,2013-04-18 16:40:00,
2013-04-18 11:50:00,49.5,45.8,29.89,NNW,336,9.0,9.0,87,0.00,,,0.12,Wunderground v.1.15,2013-04-18 16:50:00,
2013-04-18 11:55:00,49.5,45.5,29.89,NNW,336,8.0,9.0,86,0.00,,,0.12,Wunderground v.1.15,2013-04-18 16:55:00,
2013-04-18 12:05:00,50.5,45.2,29.89,North,359,10.0,14.0,82,0.00,,,0.12,Wunderground v.1.15,2013-04-18 17:05:00,
2013-04-18 12:10:00,50.8,45.5,29.89,NNW,332,11.0,12.0,82,0.00,,,0.12,Wunderground v.1.15,2013-04-18 17:10:00,
2013-04-18 12:20:00,51.1,45.5,29.89,NNW,342,9.0,12.0,81,0.00,,,0.12,Wunderground v.1.15,2013-04-18 17:20:00,
2013-04-18 12:25:00,51.1,44.8,29.89,North,3,10.0,12.0,79,0.00,,,0.12,Wunderground v.1.15,2013-04-18 17:25:00,
2013-04-18 12:35:00,51.0,44.4,29.89,North,6,10.0,17.0,78,0.00,,,0.12,Wunderground v.1.15,2013-04-18 17:35:00,
2013-04-18 12:40:00,51.3,45.7,29.88,NNW,337,9.0,9.0,81,0.00,,,0.12,Wunderground v.1.15,2013-04-18 17:40:00,
2013-04-18 12:50:00,51.6,45.3,29.89,North,0,6.0,9.0,79,0.00,,,0.12,Wunderground v.1.15,2013-04-18 17:50:00,
2013-04-18 12:55:00,51.7,45.4,29.89,North,0,7.0,9.0,79,0.00,,,0.12,Wunderground v.1.15,2013-04-18 17:55:00,
2013-04-18 13:05:00,52.0,44.7,29.89,North,352,8.0,14.0,76,0.00,,,0.12,Wunderground v.1.15,2013-04-18 18:05:00,
2013-04-18 13:10:00,52.2,45.2,29.89,North,354,8.0,8.0,77,0.00,,,0.12,Wunderground v.1.15,2013-04-18 18:10:00,
2013-04-18 13:20:00,52.8,45.4,29.88,North,356,7.0,14.0,76,0.00,,,0.12,Wunderground v.1.15,2013-04-18 18:20:00,
2013-04-18 13:25:00,53.3,45.6,29.88,North,349,7.0,19.0,75,0.00,,,0.12,Wunderground v.1.15,2013-04-18 18:25:00,
2013-04-18 13:35:00,53.8,44.6,29.88,NNW,340,10.0,17.0,71,0.00,,,0.12,Wunderground v.1.15,2013-04-18 18:35:00,
2013-04-18 13:40:00,54.2,45.4,29.88,NW,322,10.0,10.0,72,0.00,,,0.12,Wunderground v.1.15,2013-04-18 18:40:00,
2013-04-18 13:50:00,56.3,46.6,29.88,NNW,344,5.0,13.0,70,0.00,,,0.12,Wunderground v.1.15,2013-04-18 18:50:00,
2013-04-18 13:55:00,56.3,45.9,29.88,North,356,7.0,13.0,68,0.00,,,0.12,Wunderground v.1.15,2013-04-18 18:55:00,
2013-04-18 14:05:00,57.0,44.9,29.88,NNW,328,7.0,11.0,64,0.00,,,0.12,Wunderground v.1.15,2013-04-18 19:05:00,
2013-04-18 14:10:00,57.0,45.3,29.88,North,356,7.0,7.0,65,0.00,,,0.12,Wunderground v.1.15,2013-04-18 19:10:00,
2013-04-18 14:20:00,56.6,45.0,29.87,NNW,337,8.0,11.0,65,0.00,,,0.12,Wunderground v.1.15,2013-04-18 19:20:00,
2013-04-18 14:25:00,57.2,45.9,29.88,North,359,8.0,11.0,66,0.00,,,0.12,Wunderground v.1.15,2013-04-18 19:25:00,
2013-04-18 14:35:00,57.6,44.2,29.87,NNW,328,10.0,18.0,61,0.00,,,0.12,Wunderground v.1.15,2013-04-18 19:35:00,
2013-04-18 14:40:00,58.3,44.9,29.88,NNW,346,9.0,10.0,61,0.00,,,0.12,Wunderground v.1.15,2013-04-18 19:40:00,
2013-04-18 14:50:00,57.5,43.3,29.88,North,349,6.0,26.0,59,0.00,,,0.12,Wunderground v.1.15,2013-04-18 19:50:00,
2013-04-18 14:55:00,57.0,43.2,29.87,North,6,8.0,26.0,60,0.00,,,0.12,Wunderground v.1.15,2013-04-18 19:55:00,
2013-04-18 15:05:00,57.6,44.7,29.88,WNW,296,6.0,10.0,62,0.00,,,0.12,Wunderground v.1.15,2013-04-18 20:05:00,
2013-04-18 15:10:00,58.1,43.8,29.88,North,0,7.0,11.0,59,0.00,,,0.12,Wunderground v.1.15,2013-04-18 20:10:00,
2013-04-18 15:20:00,58.6,43.4,29.87,North,7,7.0,17.0,57,0.00,,,0.12,Wunderground v.1.15,2013-04-18 20:20:00,
2013-04-18 15:25:00,59.0,44.2,29.87,NNW,346,6.0,17.0,58,0.00,,,0.12,Wunderground v.1.15,2013-04-18 20:25:00,
2013-04-18 15:35:00,59.9,45.1,29.86,North,354,8.0,13.0,58,0.00,,,0.12,Wunderground v.1.15,2013-04-18 20:35:00,
2013-04-18 15:40:00,60.7,44.9,29.86,North,359,6.0,14.0,56,0.00,,,0.12,Wunderground v.1.15,2013-04-18 20:40:00,
2013-04-18 15:50:00,61.6,45.3,29.86,North,0,6.0,16.0,55,0.00,,,0.12,Wunderground v.1.15,2013-04-18 20:50:00,
2013-04-18 15:55:00,60.7,44.9,29.86,North,0,8.0,17.0,56,0.00,,,0.12,Wunderground v.1.15,2013-04-18 20:55:00,
2013-04-18 16:05:00,60.9,45.6,29.86,North,4,7.0,14.0,57,0.00,,,0.12,Wunderground v.1.15,2013-04-18 21:05:00,
2013-04-18 16:10:00,61.2,44.4,29.86,North,0,7.0,12.0,54,0.00,,,0.12,Wunderground v.1.15,2013-04-18 21:10:00,
2013-04-18 16:20:00,61.3,44.0,29.86,NNE,28,5.0,10.0,53,0.00,,,0.12,Wunderground v.1.15,2013-04-18 21:20:00,
2013-04-18 16:25:00,61.0,44.2,29.86,NNW,340,5.0,10.0,54,0.00,,,0.12,Wunderground v.1.15,2013-04-18 21:25:00,
2013-04-18 16:34:00,60.7,42.5,29.86,North,8,5.0,8.0,51,0.00,,,0.12,Wunderground v.1.15,2013-04-18 21:34:00,
2013-04-18 16:40:00,61.0,44.2,29.86,North,349,5.0,5.0,54,0.00,,,0.12,Wunderground v.1.15,2013-04-18 21:40:00,
2013-04-18 16:50:00,60.7,42.5,29.86,NW,319,5.0,5.0,51,0.00,,,0.12,Wunderground v.1.15,2013-04-18 21:50:00,
2013-04-18 16:55:00,60.4,42.7,29.86,NW,320,5.0,18.0,52,0.00,,,0.12,Wunderground v.1.15,2013-04-18 21:55:00,
2013-04-18 17:05:00,60.9,42.1,29.86,NNW,347,6.0,6.0,50,0.00,,,0.12,Wunderground v.1.15,2013-04-18 22:05:00,
2013-04-18 17:10:00,60.5,41.8,29.86,NW,322,7.0,7.0,50,0.00,,,0.12,Wunderground v.1.15,2013-04-18 22:10:00,
2013-04-18 17:20:00,60.1,42.4,29.87,North,357,5.0,14.0,52,0.00,,,0.12,Wunderground v.1.15,2013-04-18 22:20:00,
2013-04-18 17:25:00,60.2,41.0,29.87,NNE,13,6.0,14.0,49,0.00,,,0.12,Wunderground v.1.15,2013-04-18 22:25:00,
2013-04-18 17:35:00,60.1,40.3,29.88,North,356,8.0,21.0,48,0.00,,,0.12,Wunderground v.1.15,2013-04-18 22:35:00,
2013-04-18 17:40:00,59.9,40.1,29.87,North,354,6.0,6.0,48,0.00,,,0.12,Wunderground v.1.15,2013-04-18 22:40:00,
2013-04-18 17:50:00,59.9,42.2,29.87,NNW,344,5.0,5.0,52,0.00,,,0.12,Wunderground v.1.15,2013-04-18 22:50:00,
2013-04-18 17:55:00,59.9,40.7,29.87,NNW,333,5.0,12.0,49,0.00,,,0.12,Wunderground v.1.15,2013-04-18 22:55:00,
2013-04-18 18:05:00,60.1,40.9,29.88,North,356,3.0,11.0,49,0.00,,,0.12,Wunderground v.1.15,2013-04-18 23:05:00,
2013-04-18 18:10:00,60.1,40.3,29.88,North,356,5.0,11.0,48,0.00,,,0.12,Wunderground v.1.15,2013-04-18 23:10:00,
2013-04-18 18:20:00,59.9,40.7,29.89,North,352,7.0,7.0,49,0.00,,,0.12,Wunderground v.1.15,2013-04-18 23:20:00,
2013-04-18 18:25:00,59.9,41.2,29.88,North,1,6.0,15.0,50,0.00,,,0.12,Wunderground v.1.15,2013-04-18 23:25:00,
2013-04-18 18:35:00,59.8,41.1,29.89,North,3,6.0,16.0,50,0.00,,,0.12,Wunderground v.1.15,2013-04-18 23:35:00,
2013-04-18 18:40:00,59.5,41.3,29.89,NNW,346,6.0,13.0,51,0.00,,,0.12,Wunderground v.1.15,2013-04-18 23:40:00,
2013-04-18 18:50:00,59.0,40.9,29.90,North,354,5.0,5.0,51,0.00,,,0.12,Wunderground v.1.15,2013-04-18 23:50:00,
2013-04-18 18:55:00,58.7,40.6,29.90,North,359,6.0,10.0,51,0.00,,,0.12,Wunderground v.1.15,2013-04-18 23:55:00,
2013-04-18 19:05:00,58.3,40.7,29.93,North,0,5.0,14.0,52,0.00,,,0.12,Wunderground v.1.15,2013-04-19 00:05:00,
2013-04-18 19:10:00,58.0,40.0,29.93,NNW,346,4.0,11.0,51,0.00,,,0.12,Wunderground v.1.15,2013-04-19 00:10:00,
2013-04-18 19:20:00,57.6,40.1,29.93,North,356,5.0,5.0,52,0.00,,,0.12,Wunderground v.1.15,2013-04-19 00:20:00,
2013-04-18 19:25:00,57.5,40.5,29.93,North,0,4.0,5.0,53,0.00,,,0.12,Wunderground v.1.15,2013-04-19 00:25:00,
2013-04-18 19:35:00,57.0,40.5,29.94,North,0,4.0,5.0,54,0.00,,,0.12,Wunderground v.1.15,2013-04-19 00:35:00,
2013-04-18 19:40:00,56.7,40.7,29.95,North,0,2.0,2.0,55,0.00,,,0.12,Wunderground v.1.15,2013-04-19 00:40:00,
2013-04-18 19:50:00,56.2,40.7,29.96,North,359,1.0,1.0,56,0.00,,,0.12,Wunderground v.1.15,2013-04-19 00:50:00,
2013-04-18 19:55:00,55.9,40.9,29.96,North,1,0.0,1.0,57,0.00,,,0.12,Wunderground v.1.15,2013-04-19 00:55:00,
2013-04-18 20:05:00,55.4,40.4,29.98,North,359,1.0,4.0,57,0.00,,,0.12,Wunderground v.1.15,2013-04-19 01:05:00,
2013-04-18 20:10:00,55.1,40.1,29.99,North,0,1.0,1.0,57,0.00,,,0.12,Wunderground v.1.15,2013-04-19 01:10:00,
2013-04-18 20:20:00,54.8,39.8,29.99,North,352,1.0,1.0,57,0.00,,,0.12,Wunderground v.1.15,2013-04-19 01:20:00,
2013-04-18 20:25:00,54.5,39.6,30.00,North,359,2.0,2.0,57,0.00,,,0.12,Wunderground v.1.15,2013-04-19 01:25:00,
2013-04-18 20:35:00,54.4,38.6,30.01,NNW,347,4.0,6.0,55,0.00,,,0.12,Wunderground v.1.15,2013-04-19 01:35:00,
2013-04-18 20:40:00,54.2,38.8,30.01,NNW,335,2.0,2.0,56,0.00,,,0.12,Wunderground v.1.15,2013-04-19 01:40:00,
2013-04-18 20:50:00,53.9,39.5,30.02,North,0,0.0,0.0,58,0.00,,,0.12,Wunderground v.1.15,2013-04-19 01:50:00,
2013-04-18 20:55:00,53.8,39.4,30.02,North,356,1.0,4.0,58,0.00,,,0.12,Wunderground v.1.15,2013-04-19 01:55:00,
2013-04-18 21:05:00,53.5,39.1,30.04,North,0,2.0,2.0,58,0.00,,,0.12,Wunderground v.1.15,2013-04-19 02:05:00,
2013-04-18 21:10:00,53.5,38.6,30.04,North,356,2.0,2.0,57,0.00,,,0.12,Wunderground v.1.15,2013-04-19 02:10:00,
2013-04-18 21:20:00,53.6,38.3,30.05,North,0,3.0,7.0,56,0.00,,,0.12,Wunderground v.1.15,2013-04-19 02:20:00,
2013-04-18 21:25:00,53.5,38.2,30.05,NNW,342,3.0,7.0,56,0.00,,,0.12,Wunderground v.1.15,2013-04-19 02:25:00,
2013-04-18 21:34:00,53.5,39.1,30.06,North,356,3.0,7.0,58,0.00,,,0.12,Wunderground v.1.15,2013-04-19 02:34:00,
2013-04-18 21:40:00,53.3,38.4,30.06,North,353,3.0,3.0,57,0.00,,,0.12,Wunderground v.1.15,2013-04-19 02:40:00,
2013-04-18 21:50:00,53.2,38.4,30.06,North,0,3.0,7.0,57,0.00,,,0.12,Wunderground v.1.15,2013-04-19 02:50:00,
2013-04-18 21:55:00,53.1,37.8,30.06,North,353,3.0,12.0,56,0.00,,,0.12,Wunderground v.1.15,2013-04-19 02:55:00,
2013-04-18 22:05:00,53.2,37.4,30.07,North,352,5.0,15.0,55,0.00,,,0.12,Wunderground v.1.15,2013-04-19 03:05:00,
2013-04-18 22:10:00,53.2,37.0,30.07,North,353,3.0,3.0,54,0.00,,,0.12,Wunderground v.1.15,2013-04-19 03:10:00,
2013-04-18 22:20:00,53.1,36.9,30.07,North,357,5.0,5.0,54,0.00,,,0.12,Wunderground v.1.15,2013-04-19 03:20:00,
2013-04-18 22:25:00,52.9,36.7,30.07,NNW,346,3.0,8.0,54,0.00,,,0.12,Wunderground v.1.15,2013-04-19 03:25:00,
2013-04-18 22:35:00,52.8,36.1,30.07,North,1,4.0,8.0,53,0.00,,,0.12,Wunderground v.1.15,2013-04-19 03:35:00,
2013-04-18 22:40:00,52.5,36.3,30.07,North,359,5.0,5.0,54,0.00,,,0.12,Wunderground v.1.15,2013-04-19 03:40:00,
2013-04-18 22:50:00,52.3,36.6,30.07,North,359,6.0,6.0,55,0.00,,,0.12,Wunderground v.1.15,2013-04-19 03:50:00,
2013-04-18 22:55:00,52.2,36.0,30.07,North,0,6.0,6.0,54,0.00,,,0.12,Wunderground v.1.15,2013-04-19 03:55:00,
2013-04-18 23:05:00,51.7,35.6,30.07,NNW,346,4.0,11.0,54,0.00,,,0.12,Wunderground v.1.15,2013-04-19 04:05:00,
2013-04-18 23:10:00,51.7,35.6,30.08,North,0,5.0,5.0,54,0.00,,,0.12,Wunderground v.1.15,2013-04-19 04:10:00,
2013-04-18 23:20:00,51.7,36.0,30.08,North,357,4.0,4.0,55,0.00,,,0.12,Wunderground v.1.15,2013-04-19 04:20:00,
2013-04-18 23:25:00,51.4,35.8,30.08,North,359,2.0,4.0,55,0.00,,,0.12,Wunderground v.1.15,2013-04-19 04:25:00,
2013-04-18 23:30:00,51.3,36.1,30.08,North,10,3.0,13.0,56,0.00,,,0.12,Wunderground v.1.15,2013-04-19 04:30:00,
2013-04-18 23:35:00,51.3,35.2,30.10,NNE,14,4.0,13.0,54,0.00,,,0.12,Wunderground v.1.15,2013-04-19 04:35:00,
2013-04-18 23:40:00,51.3,35.7,30.11,North,0,4.0,4.0,55,0.00,,,0.12,Wunderground v.1.15,2013-04-19 04:40:00,
2013-04-18 23:50:00,51.1,35.5,30.11,North,10,3.0,6.0,55,0.00,,,0.12,Wunderground v.1.15,2013-04-19 04:50:00,
2013-04-18 23:55:00,51.0,35.8,30.10,North,7,4.0,19.0,56,0.00,,,0.12,Wunderground v.1.15,2013-04-19 04:55:00,